GW4926 Weather Reports


time (UTC)temp
C
wind
direction
speed
KPH
gust
KPH
rain 1hr
cm
rain 24hr
cm
rain mn
cm
humidity
%
barometer
mb
20260505081504 13 0 0.0 0.0 0.00 0.00 0.00 81 1016.0
20260505081003 13 0 0.0 0.0 0.00 0.00 0.00 80 1016.0
20260505080503 13 0 0.0 0.0 0.00 0.00 0.00 79 1016.0
20260505080004 13 142 0.0 0.0 0.00 0.00 0.00 79 1016.0
20260505075503 13 0 0.0 0.0 0.00 0.00 0.00 78 1016.0
20260505075003 14 0 0.0 0.0 0.00 0.00 0.00 78 1015.0
20260505074015 14 0 0.0 0.0 0.00 0.00 0.00 77 1015.0
20260505073503 14 0 0.0 0.0 0.00 0.00 0.00 77 1015.0
20260505073003 14 0 0.0 0.0 0.00 0.00 0.00 76 1015.0
20260505072503 14 0 0.0 0.0 0.00 0.00 0.00 75 1015.0
20260505072005 14 227 1.6 1.6 0.00 0.00 0.00 75 1015.0
20260505071503 15 0 0.0 0.0 0.00 0.00 0.00 74 1015.0
20260505071004 15 196 0.0 0.0 0.00 0.00 0.00 75 1015.0
20260505070504 15 0 0.0 0.0 0.00 0.00 0.00 75 1015.0
20260505070004 15 0 0.0 0.0 0.00 0.00 0.00 74 1015.0
20260505065504 15 0 0.0 0.0 0.00 0.00 0.00 74 1015.0
20260505065003 15 0 0.0 0.0 0.00 0.00 0.00 73 1015.0
20260505064503 15 0 0.0 0.0 0.00 0.00 0.00 72 1015.0
20260505064004 15 240 0.0 1.6 0.00 0.00 0.00 72 1015.0
20260505063504 16 0 0.0 0.0 0.00 0.00 0.00 71 1015.0
20260505063003 16 145 0.0 0.0 0.00 0.00 0.00 69 1015.0
20260505062503 16 0 0.0 0.0 0.00 0.00 0.00 69 1015.0
20260505062004 16 220 1.6 1.6 0.00 0.00 0.00 68 1015.0
20260505061503 16 261 0.0 0.0 0.00 0.00 0.00 68 1015.0
20260505061003 16 0 0.0 0.0 0.00 0.00 0.00 66 1015.0
20260505060503 16 231 0.0 0.0 0.00 0.00 0.00 66 1015.0
20260505060004 16 214 1.6 3.2 0.00 0.00 0.00 66 1015.0
20260505055503 16 0 0.0 0.0 0.00 0.00 0.00 66 1015.0
20260505055003 16 219 0.0 1.6 0.00 0.00 0.00 66 1015.0
20260505054503 16 229 0.0 1.6 0.00 0.00 0.00 65 1015.0
20260505054003 16 216 0.0 0.0 0.00 0.00 0.00 65 1015.0
20260505053504 16 227 1.6 3.2 0.00 0.00 0.00 65 1015.0
20260505053003 17 232 0.0 1.6 0.00 0.00 0.00 64 1015.0
20260505052503 17 220 1.6 1.6 0.00 0.00 0.00 64 1015.0
20260505052003 17 227 1.6 1.6 0.00 0.00 0.00 64 1015.0
20260505051503 17 0 0.0 0.0 0.00 0.00 0.00 64 1015.0
20260505051004 17 227 0.0 0.0 0.00 0.00 0.00 63 1015.0
20260505050503 17 216 1.6 3.2 0.00 0.00 0.00 63 1015.0
20260505041504 18 223 1.6 3.2 0.00 0.00 0.00 60 1015.0
20260505041003 18 228 0.0 1.6 0.00 0.00 0.00 60 1015.0
20260505040503 18 212 3.2 4.8 0.00 0.00 0.00 60 1015.0
20260505040005 18 235 0.0 0.0 0.00 0.00 0.00 60 1015.0
20260505035504 18 0 0.0 0.0 0.00 0.00 0.00 59 1015.0
20260505035005 18 247 0.0 0.0 0.00 0.00 0.00 59 1015.0
20260505034504 18 215 1.6 1.6 0.00 0.00 0.00 59 1015.0
20260505034004 18 242 0.0 0.0 0.00 0.00 0.00 58 1015.0
20260505033506 18 233 3.2 4.8 0.00 0.00 0.00 58 1015.0
20260505033003 18 222 1.6 4.8 0.00 0.00 0.00 57 1015.0
20260505032503 18 241 1.6 3.2 0.00 0.00 0.00 57 1015.0
20260505032004 19 220 3.2 4.8 0.00 0.00 0.00 57 1015.0
20260505031503 19 235 1.6 3.2 0.00 0.00 0.00 56 1015.0
20260505031003 19 215 1.6 1.6 0.00 0.00 0.00 56 1015.0
20260505030503 19 216 0.0 3.2 0.00 0.00 0.00 55 1015.0
20260505030003 19 248 3.2 4.8 0.00 0.00 0.00 54 1015.0
20260505025504 19 247 0.0 1.6 0.00 0.00 0.00 54 1015.0
20260505025004 19 229 0.0 1.6 0.00 0.00 0.00 52 1015.0
20260505024504 20 0 0.0 0.0 0.00 0.00 0.00 51 1015.0
20260505024003 20 242 0.0 1.6 0.00 0.00 0.00 49 1015.0
20260505023503 20 238 1.6 3.2 0.00 0.00 0.00 48 1015.0
20260505023004 20 237 1.6 3.2 0.00 0.00 0.00 48 1015.0
20260505022503 20 245 1.6 1.6 0.00 0.00 0.00 47 1015.0
20260505022003 20 283 0.0 0.0 0.00 0.00 0.00 46 1015.0
20260505021503 20 236 1.6 1.6 0.00 0.00 0.00 46 1015.0
20260505021003 20 0 0.0 0.0 0.00 0.00 0.00 44 1015.0
20260505020503 20 234 1.6 3.2 0.00 0.00 0.00 44 1015.0
20260505020004 20 236 1.6 1.6 0.00 0.00 0.00 44 1015.0
20260505015503 21 237 1.6 3.2 0.00 0.00 0.00 43 1015.0
20260505015003 21 222 3.2 6.4 0.00 0.00 0.00 43 1015.0
20260505014505 21 234 0.0 0.0 0.00 0.00 0.00 43 1015.0
20260505014004 21 246 1.6 1.6 0.00 0.00 0.00 42 1015.0
20260505013503 21 266 0.0 1.6 0.00 0.00 0.00 42 1015.0
20260505013003 21 239 1.6 1.6 0.00 0.00 0.00 42 1014.0
20260505012503 21 246 0.0 0.0 0.00 0.00 0.00 42 1014.0
20260505012003 21 262 1.6 1.6 0.00 0.00 0.00 42 1014.0
20260505011503 21 233 1.6 3.2 0.00 0.00 0.00 42 1014.0
20260505011003 21 239 1.6 3.2 0.00 0.00 0.00 41 1014.0
20260505010503 21 244 0.0 1.6 0.00 0.00 0.00 41 1014.0
20260505010003 21 219 0.0 0.0 0.00 0.00 0.00 41 1014.0
20260505005503 21 255 0.0 1.6 0.00 0.00 0.00 41 1014.0
20260505005004 21 234 0.0 1.6 0.00 0.00 0.00 40 1014.0
20260505004504 22 229 0.0 1.6 0.00 0.00 0.00 39 1014.0
20260505004004 22 248 1.6 1.6 0.00 0.00 0.00 39 1014.0
20260505003504 22 239 0.0 0.0 0.00 0.00 0.00 38 1014.0
20260505003003 22 239 1.6 4.8 0.00 0.00 0.00 38 1014.0
20260505002503 22 237 1.6 3.2 0.00 0.00 0.00 39 1014.0
20260505002004 22 235 1.6 1.6 0.00 0.00 0.00 40 1014.0
20260505001503 21 237 3.2 3.2 0.00 0.00 0.00 40 1014.0
20260505001003 21 246 1.6 1.6 0.00 0.00 0.00 39 1014.0
20260505000503 21 0 0.0 0.0 0.00 0.00 0.00 39 1014.0
20260505000004 21 234 1.6 1.6 0.00 0.00 0.00 41 1013.0
20260504235504 21 240 1.6 3.2 0.00 0.00 0.00 43 1013.0
20260504235003 21 242 1.6 1.6 0.00 0.00 0.00 42 1013.0
20260504234503 22 229 3.2 3.2 0.00 0.00 0.00 44 1013.0
20260504234003 22 229 0.0 0.0 0.00 0.00 0.00 42 1013.0
20260504233503 23 0 0.0 0.0 0.00 0.00 0.00 42 1013.0
20260504233003 23 217 0.0 0.0 0.00 0.00 0.00 41 1013.0
20260504232504 23 0 0.0 0.0 0.00 0.00 0.00 41 1013.0
20260504232004 23 0 0.0 0.0 0.00 0.00 0.00 38 1013.0
20260504231503 24 0 0.0 0.0 0.00 0.00 0.00 37 1013.0
20260504231005 24 0 0.0 0.0 0.00 0.00 0.00 37 1013.0
20260504230504 24 225 0.0 1.6 0.00 0.00 0.00 38 1013.0
20260504230004 24 209 3.2 6.4 0.00 0.00 0.00 35 1013.0
20260504225504 25 0 0.0 0.0 0.00 0.00 0.00 37 1013.0
20260504225006 25 0 0.0 0.0 0.00 0.00 0.00 38 1013.0
20260504224503 25 190 0.0 1.6 0.00 0.00 0.00 30 1013.0
20260504224004 25 216 3.2 6.4 0.00 0.00 0.00 39 1013.0
20260504223504 25 0 0.0 0.0 0.00 0.00 0.00 37 1013.0
20260504223005 25 0 0.0 0.0 0.00 0.00 0.00 37 1013.0
20260504222504 25 215 1.6 3.2 0.00 0.00 0.00 32 1013.0
20260504222005 26 225 3.2 3.2 0.00 0.00 0.00 29 1013.0
20260504221505 26 223 1.6 3.2 0.00 0.00 0.00 29 1013.0
20260504221003 26 246 1.6 3.2 0.00 0.00 0.00 30 1013.0
20260504220504 26 213 4.8 8.0 0.00 0.00 0.00 29 1013.0
20260504220004 26 0 0.0 0.0 0.00 0.00 0.00 30 1013.0
20260504215503 26 0 0.0 0.0 0.00 0.00 0.00 30 1013.0
20260504215003 26 221 3.2 3.2 0.00 0.00 0.00 31 1013.0
20260504214504 26 178 3.2 6.4 0.00 0.00 0.00 30 1013.0
20260504214003 26 226 3.2 4.8 0.00 0.00 0.00 30 1013.0
20260504213503 26 46 0.0 0.0 0.00 0.00 0.00 34 1013.0
20260504213003 26 204 1.6 3.2 0.00 0.00 0.00 31 1013.0
20260504212503 26 212 4.8 6.4 0.00 0.00 0.00 30 1013.0
20260504212003 26 213 3.2 8.0 0.00 0.00 0.00 34 1013.0
20260504211506 26 211 1.6 1.6 0.00 0.00 0.00 32 1013.0
20260504211006 26 234 3.2 4.8 0.00 0.00 0.00 31 1013.0
20260504210504 26 203 0.0 1.6 0.00 0.00 0.00 34 1013.0
20260504210005 26 232 3.2 4.8 0.00 0.00 0.00 31 1013.0
20260504205503 26 99 0.0 0.0 0.00 0.00 0.00 32 1013.0
20260504205003 26 215 3.2 4.8 0.00 0.00 0.00 32 1013.0
20260504204504 26 302 1.6 4.8 0.00 0.00 0.00 31 1013.0
20260504204004 26 145 0.0 1.6 0.00 0.00 0.00 31 1014.0
20260504203504 27 210 1.6 3.2 0.00 0.00 0.00 31 1014.0
20260504203003 26 352 0.0 1.6 0.00 0.00 0.00 32 1014.0
20260504202504 26 220 3.2 8.0 0.00 0.00 0.00 32 1014.0
20260504202003 26 244 0.0 1.6 0.00 0.00 0.00 32 1014.0
20260504201504 26 235 6.4 9.7 0.00 0.00 0.00 30 1014.0
20260504201003 26 46 1.6 1.6 0.00 0.00 0.00 33 1014.0
20260504200503 26 224 3.2 6.4 0.00 0.00 0.00 31 1014.0
20260504200003 26 233 1.6 1.6 0.00 0.00 0.00 32 1014.0
20260504195505 26 334 0.0 0.0 0.00 0.00 0.00 32 1014.0
20260504195003 26 278 1.6 1.6 0.00 0.00 0.00 33 1014.0
20260504194505 26 182 1.6 1.6 0.00 0.00 0.00 35 1014.0
20260504194004 26 51 1.6 3.2 0.00 0.00 0.00 32 1014.0
20260504193504 26 217 3.2 4.8 0.00 0.00 0.00 32 1014.0
20260504193003 26 212 1.6 3.2 0.00 0.00 0.00 33 1014.0
20260504192509 26 313 1.6 3.2 0.00 0.00 0.00 31 1014.0
20260504192004 26 223 1.6 4.8 0.00 0.00 0.00 33 1014.0
20260504191503 26 170 3.2 3.2 0.00 0.00 0.00 32 1014.0
20260504191004 26 0 0.0 0.0 0.00 0.00 0.00 34 1015.0
20260504190506 26 201 3.2 6.4 0.00 0.00 0.00 30 1014.0
20260504190006 25 187 1.6 3.2 0.00 0.00 0.00 32 1015.0
20260504185503 25 67 1.6 3.2 0.00 0.00 0.00 33 1015.0
20260504185003 25 227 6.4 11.3 0.00 0.00 0.00 32 1015.0
20260504184503 25 226 3.2 6.4 0.00 0.00 0.00 33 1015.0
20260504184003 25 223 1.6 3.2 0.00 0.00 0.00 33 1015.0
20260504183505 25 341 1.6 3.2 0.00 0.00 0.00 32 1015.0
20260504183003 25 308 1.6 1.6 0.00 0.00 0.00 33 1015.0
20260504182504 25 48 1.6 3.2 0.00 0.00 0.00 34 1015.0
20260504182003 24 153 0.0 1.6 0.00 0.00 0.00 34 1015.0
20260504181504 25 204 1.6 6.4 0.00 0.00 0.00 33 1015.0
20260504181003 24 171 0.0 0.0 0.00 0.00 0.00 35 1015.0
20260504180504 24 15 3.2 3.2 0.00 0.00 0.00 34 1015.0
20260504180004 24 49 3.2 4.8 0.00 0.00 0.00 34 1015.0
20260504175503 24 29 3.2 4.8 0.00 0.00 0.00 35 1015.0
20260504175003 23 0 0.0 0.0 0.00 0.00 0.00 38 1015.0
20260504174503 23 216 3.2 4.8 0.00 0.00 0.00 38 1015.0
20260504174004 23 7 3.2 4.8 0.00 0.00 0.00 37 1015.0
20260504173504 23 185 1.6 1.6 0.00 0.00 0.00 37 1016.0
20260504173006 23 348 0.0 1.6 0.00 0.00 0.00 38 1016.0
20260504172505 23 66 3.2 4.8 0.00 0.00 0.00 38 1016.0
20260504172004 23 57 3.2 4.8 0.00 0.00 0.00 38 1016.0
20260504171503 23 212 1.6 1.6 0.00 0.00 0.00 39 1016.0
20260504171006 22 214 0.0 1.6 0.00 0.00 0.00 39 1016.0
20260504170506 22 262 0.0 1.6 0.00 0.00 0.00 41 1016.0
20260504151004 18 213 3.2 4.8 0.00 0.00 0.00 55 1017.0
20260504150504 18 43 3.2 4.8 0.00 0.00 0.00 56 1017.0
20260504141003 16 224 3.2 4.8 0.00 0.00 0.00 68 1018.0
20260504140503 15 228 1.6 3.2 0.00 0.00 0.00 71 1018.0
20260504130503 12 83 0.0 1.6 0.00 0.00 0.00 81 1018.0
20260504110503 6 0 0.0 0.0 0.00 0.00 0.00 95 1018.0
20260504100503 6 232 1.6 1.6 0.00 0.00 0.00 93 1017.0
20260504082004 5 0 0.0 0.0 0.00 0.00 0.00 91 1017.0